Tracking 20623 objects as of 3-Apr-2020
HD Live streaming from Space Station
objects crossing your sky now

ARIANE 5 R/B

Track ARIANE 5 R/B now!
10-day predictions


NORAD ID: 29498
Int'l Code: 2006-043E
Perigee: 203.4 km
Apogee: 25,202.0 km
Inclination: 7.0 °
Period: 436.9 minutes
Semi major axis: 19073 km
RCS: 22.7915 m2 (large)
Launch date: October 13, 2006
Source: France (FR)
Launch site: FRENCH GUIANA (FRGUI)

Note: This is a ROCKET BODY
aabbcc
Your satellite tracking list
Your tracking list is empty




NASA's NSSDC Master Catalog

Two Line Element Set (TLE):
1 29498U 06043E   20094.37534455 +.00019875 +38801-6 +85490-3 0  9991
2 29498 006.9552 054.2933 6553153 320.4723 006.6099 03.29571252136811
Source of the keplerian elements: AFSPC